Weather History for Capo Carbonara, Italy

Change the Weather History Date:

Tuesday, October 1, 2013

  Actual Average Record
Temperature  
Mean Temperature 76 °F -  
Max Temperature 82 °F - - ()
Min Temperature 71 °F - - ()
Cooling Degree Days 12    
Growing Degree Days 26 (Base 50)    
Moisture  
Dew Point 63 °F    
Average Humidity 63    
Maximum Humidity 74    
Minimum Humidity 38    
Precipitation  
Precipitation 0.00 in - - ()
Sea Level Pressure  
Sea Level Pressure 29.78 in    
Wind  
Wind Speed 12 mph ()    
Max Wind Speed 22 mph    
Max Gust Speed -    
Visibility 7.7 miles    
Events      
T = Trace of Precipitation, MM = Missing Value Source: Averaged Metar Reports

Daily Weather History Graph

Daily Weather History Graph

Search for Another Location

Airport:

Trip Planner

Search our weather history database for the weather conditions in past years. The results will help you decide how hot, cold, wet, or windy it might be!

Date:

Astronomy

Oct. 01, 2013 Rise Set
Actual Time 7:17 AM CEST 7:04 PM CEST
Civil Twilight 6:51 AM CEST 7:31 PM CEST
Nautical Twilight 6:20 AM CEST 8:02 PM CEST
Astronomical Twilight 5:48 AM CEST 8:33 PM CEST
Moon 3:37 AM CEST (10/1) 4:58 PM CEST (10/1)
Length of Visible Light 12h 39m
Length of Day
11h 46m
Waning Crescent, 14% of the Moon is Illuminated
Oct 1
Waning Crescent
Oct 5
New
Oct 12
First Quarter
Oct 19
Full
Oct 27
Last Quarter

Hourly Weather History & Observations

Time (CEST) Temp. Heat Index Dew Point Humidity Pressure Visibility Wind Dir Wind Speed Gust Speed Precip Events Conditions
12:55 AM 71.6 °F - 62.6 °F 73% 29.74 in - West 11.5 mph - N/A   Clear
2:00 AM 71 °F - 62 °F 65% 29.75 in 12 mi West 15.0 mph - -  
2:55 AM 71.6 °F - 62.6 °F 73% 29.74 in - West 15.0 mph - N/A   Clear
3:55 AM 71.6 °F - 60.8 °F 69% 29.74 in 6.2 mi West 11.5 mph - N/A   Partly Cloudy
4:55 AM 71.6 °F - 60.8 °F 69% 29.74 in 6.2 mi West 11.5 mph - N/A   Partly Cloudy
5:00 AM 72 °F - 61 °F 61% 29.74 in 12 mi West 11.5 mph - -   Scattered Clouds
5:55 AM 71.6 °F - 60.8 °F 69% 29.74 in 6.2 mi WSW 12.7 mph - N/A   Partly Cloudy
6:55 AM 71.6 °F - 60.8 °F 69% 29.74 in 6.2 mi WSW 10.4 mph - N/A   Partly Cloudy
7:55 AM 71.6 °F - 60.8 °F 69% 29.74 in 6.2 mi WSW 13.8 mph - N/A   Partly Cloudy
8:00 AM 72 °F - 61 °F 60% 29.75 in 12 mi WSW 13.8 mph - -   Scattered Clouds
8:55 AM 73.4 °F - 62.6 °F 69% 29.77 in 6.2 mi WSW 18.4 mph - N/A   Scattered Clouds
9:55 AM 73.4 °F - 62.6 °F 69% 29.77 in 6.2 mi West 18.4 mph - N/A   Partly Cloudy
10:55 AM 75.2 °F - 64.4 °F 69% 29.80 in 6.2 mi WSW 21.9 mph - N/A   Partly Cloudy
11:55 AM 77.0 °F - 64.4 °F 65% 29.80 in 6.2 mi WSW 19.6 mph - N/A   Partly Cloudy
12:55 PM 80.6 °F 82.7 °F 66.2 °F 61% 29.80 in 6.2 mi WSW 15.0 mph - N/A   Partly Cloudy
1:55 PM 82.4 °F 85.4 °F 68.0 °F 62% 29.80 in 6.2 mi SSW 13.8 mph - N/A   Partly Cloudy
2:00 PM 82 °F - 67 °F 52% 29.79 in 12 mi SSW 13.8 mph - -   Scattered Clouds
2:55 PM 80.6 °F 83.9 °F 69.8 °F 70% 29.80 in 6.2 mi NW 15.0 mph - N/A   Partly Cloudy
3:55 PM 82.4 °F 87.2 °F 71.6 °F 70% 29.77 in 6.2 mi West 12.7 mph - N/A   Partly Cloudy
4:55 PM 80.6 °F 84.6 °F 71.6 °F 74% 29.77 in 6.2 mi SW 16.1 mph - N/A   Partly Cloudy
5:00 PM 81 °F - 71 °F 65% 29.77 in 12 mi SW 16.1 mph - -   Scattered Clouds
5:55 PM 80.6 °F 83.9 °F 69.8 °F 70% 29.77 in 6.2 mi SW 16.1 mph - N/A   Partly Cloudy
6:55 PM 80.6 °F 80.5 °F 55.4 °F 42% 29.80 in 6.2 mi WNW 16.1 mph - N/A   Partly Cloudy
7:55 PM 78.8 °F - 57.2 °F 47% 29.80 in 6.2 mi WNW 12.7 mph - N/A   Partly Cloudy
8:00 PM 79 °F - 58 °F 38% 29.81 in 12 mi WNW 12.7 mph - -   Scattered Clouds
8:55 PM 77.0 °F - 59.0 °F 54% 29.83 in 6.2 mi West 10.4 mph - N/A   Partly Cloudy
9:55 PM 75.2 °F - 62.6 °F 65% 29.83 in 6.2 mi West 10.4 mph - N/A   Partly Cloudy
10:55 PM 75.2 °F - 59.0 °F 57% 29.83 in 6.2 mi WNW 5.8 mph - N/A   Partly Cloudy
11:00 PM 75 °F - 59 °F 48% 29.84 in 12 mi WNW 5.8 mph - -   Scattered Clouds
11:55 PM 75.2 °F - 59.0 °F 57% 29.83 in 6.2 mi West 9.2 mph - N/A   Partly Cloudy